Flag for Norway Weather past 2 weeks in Longyearbyen, Svalbard, Norway

Now
43 °F

Partly sunny.


Feels Like: 35 °F
Forecast: 46 / 50 °F
Wind: 17 mph from Southeast

Location: Svalbard Lufthavn

Current Time: Jul 8, 2015 at 9:09:32 AM

Latest Report: Jul 8, 2015 at 8:50 AM


Visibility: N/A

Pressure: 30.12 "Hg

Humidity: 66%

Dew point: 32 °F

Location of LongyearbyenLocation

Historic Weather in Longyearbyen — Graph

°F

Longyearbyen temperature yesterday

Maximum temperature yesterday: 52 °F (at 11:50 AM)
Minimum temperature yesterday: 43 °F (at 9:50 PM)
Average temperature yesterday: 48 °F

Past Weeks' High & Low Weather Summary

 TemperatureHumidityPressure
High52 °F (Jul 7, 11:50 AM)93% (Jun 27, 3:50 AM)30.33 "Hg (Jun 27, 3:50 AM)
Low36 °F (Jun 29, 2:50 AM)54% (Jul 4, 8:50 AM)29.86 "Hg (Jun 27, 6:57 AM)
Average43 °F72%30.08 "Hg
* Reported Jun 23 7:50 AM — Jul 8 7:50 AM, Longyearbyen, Weather by CustomWeather, © 2015

Note: Actual official high and low records may vary slightly from our data, if they occured in-between our weather recording intervals... More about our weather records

Advertising

Longyearbyen weather history for previous 24 hours

 ConditionsComfort  
Time TempWeatherWind HumidityBarometerVisibility
7:50 AM
Wed, Jul 8
43 °FBroken clouds.17 mph66%30.12 "HgN/A
6:50 AM43 °FDrizzle. Broken clouds.18 mph66%30.12 "HgN/A
5:50 AM43 °FDrizzle. Broken clouds.20 mph66%30.09 "HgN/A
4:50 AM45 °FDrizzle. Broken clouds.16 mph57%30.09 "HgN/A
3:50 AM45 °FPartly sunny.14 mph57%30.09 "HgN/A
2:50 AM43 °FBroken clouds.12 mph66%30.09 "HgN/A
1:50 AM45 °FScattered clouds.8 mph61%30.09 "HgN/A
12:50 AM45 °FPartly sunny.12 mph61%30.07 "HgN/A
11:50 PM
Tue, Jul 7
45 °FBroken clouds.15 mph61%30.07 "HgN/A
10:50 PM45 °FBroken clouds.8 mph61%30.07 "HgN/A
9:50 PM43 °FBroken clouds.16 mph66%30.07 "HgN/A
8:50 PM45 °FPartly sunny.13 mph61%30.07 "HgN/A
7:50 PM45 °FPartly sunny.15 mph61%30.07 "HgN/A
6:50 PM45 °FPartly sunny.13 mph61%30.07 "HgN/A
5:50 PM46 °FPartly sunny.17 mph62%30.07 "HgN/A
4:50 PM48 °FBroken clouds.13 mph62%30.07 "HgN/A
3:50 PM50 °FPartly sunny.16 mph54%30.07 "HgN/A
2:50 PM50 °FPartly sunny.13 mph58%30.07 "HgN/A
1:50 PM50 °FPartly sunny.14 mph54%30.09 "HgN/A
12:50 PM48 °FScattered clouds.10 mph58%30.09 "HgN/A
11:50 AM52 °FScattered clouds.12 mph54%30.09 "HgN/A
10:50 AM50 °FScattered clouds.10 mph54%30.12 "HgN/A
9:50 AM48 °FPartly sunny.14 mph58%30.12 "HgN/A
Weather by CustomWeather, © 2015

See weather overviewHow to use our weather pages